DW8626 Madrid ES current weather conditions

sailwx.info

Wind from 040 at 1 knots gusting 4

Air temperature 23.3° C
Dewpoint 5.2° C

Last reported at 2014-Oct-25 17:43 UTC.
Time now 2014-Oct-25 18:23 UTC

Location: N 40°29' W 003°43'.
View on Google Maps.

See reports from other nearby stations

  
Tides and Currents Weather Stations Pressure Air Temp Water Temp Dewpoint Dewpoint Depression Visibility Wind Speed Wind Dir Waves Ship Positions
date/time (UTC)wind fromknots sea level pressurealtimeterstation pressurevisibilityair tempwater tempwave heightnotes
2014-Oct-25 17:43 040 1 gusting 4 23.3
2014-Oct-25 17:30 027 2 gusting 3 23.9
2014-Oct-25 17:13 043 1 gusting 2 24.4
2014-Oct-25 16:58 023 2 gusting 2 25.0
2014-Oct-25 16:43 025 1 gusting 4 25.0
2014-Oct-25 16:13 018 25.6
2014-Oct-25 15:58 131 25.6
2014-Oct-25 15:29 113 25.6
2014-Oct-25 15:14 095 1 gusting 3 26.1
2014-Oct-25 14:59 141 26.1
2014-Oct-25 14:44 141 26.1
2014-Oct-25 13:43 107 1 gusting 4 25.0
2014-Oct-25 13:34 128 25.0
2014-Oct-25 12:59 111 4 gusting 6 24.4
2014-Oct-25 12:44 339 1 gusting 2 25.0
2014-Oct-25 12:28 270 24.4
2014-Oct-25 12:14 088 23.9
2014-Oct-25 11:43 110 23.9
2014-Oct-25 11:27 139 1 gusting 4 22.8
2014-Oct-25 11:12 193 0 gusting 4 22.2
2014-Oct-25 10:57 131 22.2
2014-Oct-25 10:42 108 0 gusting 4 22.2
2014-Oct-25 10:27 058 0 gusting 6 21.7
2014-Oct-25 10:12 171 0 gusting 5 21.7
2014-Oct-25 09:57 131 0 gusting 3 21.1
2014-Oct-25 09:42 013 1 gusting 6 20.6
2014-Oct-25 09:27 096 0 gusting 9 19.4
2014-Oct-25 09:12 070 4 gusting 8 18.9
2014-Oct-25 08:57 075 2 gusting 11 18.9
2014-Oct-25 08:42 045 4 gusting 9 17.8
2014-Oct-25 08:27 011 6 gusting 12 17.8
2014-Oct-25 08:12 065 4 gusting 8 17.8
2014-Oct-25 07:57 063 3 gusting 12 17.8
2014-Oct-25 07:42 032 2 gusting 6 17.2
2014-Oct-25 07:27 053 16.7
2014-Oct-25 07:12 049 0 gusting 4 16.7
2014-Oct-25 06:57 026 1 gusting 6 16.7
2014-Oct-25 06:42 075 4 gusting 8 16.7
2014-Oct-25 06:27 051 4 gusting 9 16.7
2014-Oct-25 06:12 065 5 gusting 8 16.7
2014-Oct-25 05:57 062 5 gusting 12 17.2
2014-Oct-25 05:42 029 6 gusting 10 16.7
2014-Oct-25 05:27 028 6 gusting 10 16.7
2014-Oct-25 05:12 022 5 gusting 10 17.2
2014-Oct-25 04:57 045 7 gusting 12 17.2
2014-Oct-25 04:42 023 5 gusting 10 17.2
2014-Oct-25 04:27 023 8 gusting 12 17.2
2014-Oct-25 04:12 050 8 gusting 13 17.8
2014-Oct-25 03:57 045 8 gusting 13 17.8
2014-Oct-25 03:42 013 7 gusting 12 17.8
2014-Oct-25 03:27 044 6 gusting 11 17.8
2014-Oct-25 03:12 014 5 gusting 8 17.8
2014-Oct-25 02:57 025 4 gusting 12 17.8
2014-Oct-25 02:42 053 6 gusting 12 17.8
2014-Oct-25 02:27 025 7 gusting 12 18.3
2014-Oct-25 02:12 032 6 gusting 13 18.9
2014-Oct-25 01:57 054 5 gusting 11 18.9
2014-Oct-25 01:42 051 7 gusting 13 18.9
2014-Oct-25 01:27 039 6 gusting 12 18.9
2014-Oct-25 01:12 060 8 gusting 13 18.9
2014-Oct-25 00:57 038 7 gusting 10 19.4
2014-Oct-25 00:42 044 7 gusting 14 19.4
2014-Oct-25 00:27 060 3 gusting 7 19.4
2014-Oct-25 00:12 039 4 gusting 10 19.4
2014-Oct-24 23:57 023 6 gusting 12 19.4
2014-Oct-24 23:42 083 4 gusting 11 19.4
2014-Oct-24 23:27 058 0 gusting 7 19.4
2014-Oct-24 23:12 082 1 gusting 5 19.4
2014-Oct-24 22:57 065 0 gusting 3 19.4
2014-Oct-24 22:42 047 0 gusting 9 19.4
2014-Oct-24 22:27 252 0 gusting 6 19.4
2014-Oct-24 22:12 032 2 gusting 5 20.0
2014-Oct-24 21:57 112 1 gusting 4 20.0
2014-Oct-24 21:42 067 4 gusting 11 20.0
2014-Oct-24 21:27 060 2 gusting 8 20.0
2014-Oct-24 21:12 120 0 gusting 6 20.6
2014-Oct-24 20:57 054 2 gusting 7 21.1
2014-Oct-24 20:42 064 5 gusting 10 21.1
2014-Oct-24 20:27 053 5 gusting 11 21.1
2014-Oct-24 20:12 057 5 gusting 11 21.1
2014-Oct-24 19:57 041 7 gusting 10 21.1
2014-Oct-24 19:42 012 5 gusting 11 21.7
2014-Oct-24 19:27 041 4 gusting 13 21.7
2014-Oct-24 19:12 039 6 gusting 10 21.7
2014-Oct-24 18:57 023 5 gusting 11 21.7
2014-Oct-24 18:42 016 6 gusting 12 22.2
2014-Oct-24 18:27 026 6 gusting 11 22.2
2014-Oct-24 18:12 046 6 gusting 11 22.8
2014-Oct-24 17:57 024 6 gusting 10 22.8
2014-Oct-24 17:42 020 6 gusting 10 23.3
2014-Oct-24 17:27 046 5 gusting 9 23.9
2014-Oct-24 17:12 047 4 gusting 7 24.4
2014-Oct-24 16:57 023 6 gusting 13 25.0
2014-Oct-24 16:42 041 2 gusting 7 25.6
2014-Oct-24 16:27 035 4 gusting 10 25.6
2014-Oct-24 16:12 026 6 gusting 13 26.1
2014-Oct-24 15:57 040 5 gusting 11 26.1
2014-Oct-24 15:42 032 3 gusting 13 26.1
2014-Oct-24 15:27 044 4 gusting 10 26.1
2014-Oct-24 15:12 045 5 gusting 9 26.1
2014-Oct-24 14:57 053 5 gusting 17 26.1
2014-Oct-24 14:12 108 1 gusting 8 26.7
2014-Oct-24 13:57 068 5 gusting 8 26.1
2014-Oct-24 13:42 018 2 gusting 9 25.6
2014-Oct-24 13:27 324 1 gusting 9 25.6
2014-Oct-24 13:12 089 3 gusting 6 25.6
2014-Oct-24 12:57 070 0 gusting 6 25.6
2014-Oct-24 12:42 050 1 gusting 5 25.0
2014-Oct-24 12:27 051 0 gusting 9 25.0
2014-Oct-24 12:12 330 6 gusting 10 25.0
2014-Oct-24 11:57 043 3 gusting 8 25.0
2014-Oct-24 11:42 349 1 gusting 6 25.0
2014-Oct-24 11:27 050 4 gusting 7 24.4
2014-Oct-24 11:12 077 25.0
2014-Oct-24 10:42 131 23.3
2014-Oct-24 10:27 248 0 gusting 3 22.2
2014-Oct-24 10:12 143 23.3
2014-Oct-24 09:57 158 22.8
2014-Oct-24 09:42 158 22.8
2014-Oct-24 09:27 155 22.2
2014-Oct-24 09:12 293 20.6
2014-Oct-24 08:57 162 22.2
2014-Oct-24 08:42 204 20.6
2014-Oct-24 08:27 204 18.9
2014-Oct-24 08:12 204 18.9
2014-Oct-24 07:57 157 17.8
2014-Oct-24 07:42 157 17.8
2014-Oct-24 07:27 156 16.7
2014-Oct-24 07:12 156 16.7
2014-Oct-24 06:57 162 15.6
2014-Oct-24 06:42 167 16.1
2014-Oct-24 06:27 148 16.1
2014-Oct-24 06:12 138 16.1
2014-Oct-24 05:57 156 15.6
2014-Oct-24 05:42 128 16.1
2014-Oct-24 05:27 200 15.6
2014-Oct-24 05:12 222 16.1
2014-Oct-24 04:57 179 16.7
2014-Oct-24 04:42 179 16.7
2014-Oct-24 04:27 179 16.7
2014-Oct-24 04:12 177 17.8
2014-Oct-24 03:57 335 18.3
2014-Oct-24 03:42 046 18.3
2014-Oct-24 03:27 359 17.2
2014-Oct-24 03:12 263 17.2
2014-Oct-24 02:57 345 17.2
2014-Oct-24 02:42 338 17.2
2014-Oct-24 02:27 329 17.8
2014-Oct-24 02:12 016 17.8
2014-Oct-24 01:57 019 18.3
2014-Oct-24 01:42 025 18.3
2014-Oct-24 01:27 339 18.9
2014-Oct-24 01:12 029 1 gusting 4 18.9
2014-Oct-24 00:57 012 2 gusting 6 18.9
2014-Oct-24 00:42 023 2 gusting 6 18.9
2014-Oct-24 00:27 344 0 gusting 5 18.9
2014-Oct-24 00:12 043 4 gusting 8 18.9
2014-Oct-23 23:57 355 3 gusting 6 18.9
2014-Oct-23 23:42 032 5 gusting 9 18.9
2014-Oct-23 23:27 055 4 gusting 7 18.9
2014-Oct-23 23:12 039 1 gusting 5 18.9
2014-Oct-23 22:57 078 18.9
2014-Oct-23 22:42 088 18.3
2014-Oct-23 22:27 142 17.8
2014-Oct-23 22:12 143 18.3
2014-Oct-23 21:57 107 18.9
2014-Oct-23 21:42 030 19.4
2014-Oct-23 21:27 008 20.0
2014-Oct-23 21:12 016 2 gusting 6 20.0
2014-Oct-23 20:57 023 4 gusting 8 20.6
2014-Oct-23 20:42 355 3 gusting 6 20.6
2014-Oct-23 20:27 019 4 gusting 7 20.6
2014-Oct-23 20:12 005 5 gusting 6 20.6
2014-Oct-23 19:57 006 3 gusting 5 20.6
2014-Oct-23 19:42 013 1 gusting 6 21.1
2014-Oct-23 19:27 344 2 gusting 7 21.1
2014-Oct-23 19:12 324 5 gusting 8 21.1
2014-Oct-23 18:57 345 5 gusting 9 21.1
2014-Oct-23 18:27 023 5 gusting 9 21.7
2014-Oct-23 18:12 032 6 gusting 8 21.7